    Orbital elements:
    2020 BW14                                           PHA, Earth MOID = 0.0139 AU
    Epoch 2020 May 31.0 TT = JDT 2459000.5                  Bell
    M  38.10964              (2000.0)            P               Q
    n   0.23416662     Peri.   27.60359     +0.65798099     -0.74617452
    a   2.6068701      Node    21.74728     +0.63057930     +0.47234968
    e   0.6408021      Incl.   15.88511     +0.41161968     +0.46915814
    P   4.21           H   18.4           G   0.15           U   9
    Residuals in seconds of arc
    200128 T05  0.2-  0.4-    200129 673  1.5-  1.4-    200130 033  0.2+  0.0
    200128 T05  0.5-  0.1-    200129 673  0.7-  0.6-    200130 033  0.4-  0.1-
    200128 T05  0.1+  0.3-    200129 587  0.3-  0.2-    200130 033  0.4-  0.3-
    200128 T05  0.6-  0.1+    200129 587  0.7-  0.1-    200131 I52  0.1+  0.2+
    200128 033  0.3-  0.1-    200129 587  0.5-  0.2-    200131 I52  0.0   0.2-
    200128 033  0.4-  0.0     200129 B74  0.1-  0.6+    200131 I52  0.1+  0.1-
    200128 033  0.3-  0.0     200129 L01  1.0+  0.3-    200131 033  0.2-  0.1+
    200128 033  0.4-  0.2-    200129 B74  0.2+  0.2+    200131 033  0.1-  0.2+
    200128 J95  0.3+  0.1-    200129 L01  0.1+  0.6+    200131 033  0.2-  0.0
    200128 J95  0.3+  0.2-    200129 B74  0.6+  0.3+    200131 033  0.1-  0.0
    200128 J95  0.3+  0.1+    200129 104  0.5+  0.1+    200131 C95  0.3+  0.2+
    200128 J95  0.6+  0.9+    200129 033  0.2-  0.3+    200131 C95  0.0   0.4-
    200128 Z99  0.1+  0.1-    200129 033  0.6-  0.3-    200131 C95  0.1-  0.1-
    200128 Z99  0.5-  0.1+    200129 033  0.6-  0.6-    200131 C95  0.5+  0.1+
    200128 Z99  0.1+  1.0-    200129 033  0.1-  0.1-    200201 I52  0.0   0.1-
    200129 H06  0.7-  0.7-    200129 104  0.3+  0.2+    200201 I52  0.4+  0.3+
    200129 H06  0.9-  0.4-    200129 204  0.2+  0.5+    200201 I52  0.3+  0.3+
    200129 H06  0.7-  0.2-    200129 204  0.2+  0.8+    200201 I52  0.2+  0.0
    200129 I52  0.2-  0.6+    200130 I52  0.1+  0.4+    200201 118  0.1+  0.1+
    200129 I52  0.3-  0.3-    200130 I52  0.2-  0.1-    200201 118  0.7-  0.7-
    200129 I52  0.1-  0.4+    200130 I52  0.2+  0.0     200201 118  0.1+  0.1-
    200129 I52  0.2-  0.5-    200130 I52  0.3-  0.3+
    
    Ephemeris:
    2020 BW14                a,e,i = 2.61, 0.64, 16                  q = 0.9364
    Date    TT    R. A. (2000) Decl.     Delta      r    Elong.  Phase     V
    2020 01 02    22 50 40.8 +11 52 11   0.6075  0.9537    69.1    74.4    19.8
    ...
    2020 01 17    23 54 52.8 +27 23 09   0.5817  1.0146    76.0    70.2    19.7
    ...
    2020 01 25    00 37 54.6 +35 04 51   0.5874  1.0614    80.7    66.2    19.7
    ...
    2020 01 31    01 15 09.1 +40 04 24   0.6020  1.1016    84.2    62.8    19.7
    2020 02 01    01 21 46.3 +40 49 04   0.6053  1.1086    84.8    62.3    19.7
    2020 02 02    01 28 30.1 +41 32 02   0.6088  1.1157    85.4    61.7    19.8
    ...
    2020 02 08    02 10 56.2 +45 11 20   0.6354  1.1604    88.6    58.2    19.8
    ...
    2020 02 16    03 10 47.4 +48 12 25   0.6847  1.2238    92.3    53.8    20.0
    ...
    2020 03 02    04 56 46.6 +48 41 52   0.8170  1.3506    96.2    46.8    20.4
    
    A. U. Tomatic                (C) Copyright 2020 MPC           M.P.E.C. 2020-C16
    


    Read MPEC 2020-C15 Read MPEC 2020-C17


    MPEC number:

    Enter an MPEC number in one of the following forms:

    • 1997-B01 (the full form)
    • J97B01 (the packed version of the full form)
    • B01 (the abbreviated form)